Tracking 29059 objects as of 18-Jun-2024
HD Live streaming from Space Station
objects crossing your sky now

ARIANE 5 DEB

Track ARIANE 5 DEB now!


NORAD ID: 43384
Int'l Code: 2008-030G
Perigee: 398.3 km
Apogee: 35,314.2 km
Inclination: 1.5 °
Period: 625.5 minutes
Semi major axis: 24227 km
RCS: Unknown
Launch date: June 12, 2008
Source: France (FR)
Launch site: FRENCH GUIANA (FRGUI)

Note: This is SATELLITE DEBRIS
Your satellite tracking list
Your tracking list is empty




NASA's NSSDC Master Catalog

Two Line Element Set (TLE):
1 43384U 08030G   24169.46574150  .00000655  00000-0  16969-2 0  9996
2 43384   1.5214 227.7783 7205910 188.2794 145.9383  2.30222014129366
Source of the keplerian elements: AFSPC